Temp
27 28 28 30 31 30 27 28 26 25 26 26 26 25 23 21 19 20 21 23 23 22 24 24 21 23 21 20 20 19 19 18 19 18 19 19 20 20 20 20 19 20 19 19
29 27 30 31 32 31 29 29 28 27 28 27 27 24 24 22 21 22 21 20 22 22 23 24 23 23 21 21 20 18 18 18 18 19 19 19 20 20 20 20 19 19 18 19
29 30 31 31 31 29 30 29 27 26 27 28 28 26 23 24 22 22 22 22 20 20 20 23 23 22 21 20 20 19 19 18 18 18 19 20 20 20 20 20 19 19 18 19
29 31 31 30 30 30 29 30 29 27 27 27 28 25 25 24 23 23 22 20 20 21 19 20 23 23 22 21 20 20 20 18 18 19 19 20 20 20 20 20 20 19 19 19
29 30 29 29 29 30 30 30 29 28 27 29 30 28 27 24 22 22 23 22 21 23 21 20 22 24 23 22 21 20 20 19 18 19 19 19 20 20 20 20 20 19 19 19
29 30 30 29 30 31 31 29 29 27 28 27 30 30 25 22 21 24 23 22 21 23 24 22 22 23 24 22 21 20 19 19 18 18 18 19 20 20 20 20 20 20 19 19
29 29 30 30 30 31 30 29 27 27 28 27 27 28 24 26 23 26 25 22 22 23 25 22 22 23 23 23 22 21 20 19 19 19 18 19 19 20 20 20 20 21 20 20
29 27 29 30 29 29 30 29 28 25 23 20 24 24 26 28 27 27 26 23 23 25 25 24 23 24 24 22 23 21 20 20 19 19 18 19 19 19 19 20 20 20 20 20
29 29 31 31 30 30 29 28 31 28 28 24 23 23 23 27 30 30 26 24 25 25 26 24 23 24 24 24 22 22 21 20 19 19 19 19 20 19 19 20 20 20 20 20
29 28 30 30 30 30 30 31 28 29 26 24 21 19 19 19 16 29 27 22 25 26 25 25 24 23 24 23 23 22 22 20 20 19 19 19 19 20 19 19 19 20 20 20
30 29 28 29 28 28 29 28 26 26 24 25 22 18 16 16 17 25 29 25 27 26 25 25 26 24 23 23 23 23 22 20 20 19 19 19 19 19 19 19 19 20 20 19
30 29 26 26 24 28 28 26 25 24 17 20 23 17 16 16 17 27 28 27 25 27 27 25 25 24 24 22 23 23 22 21 21 20 20 19 19 19 19 19 19 19 20 19
28 28 27 26 20 24 27 27 25 26 26 22 19 20 20 18 16 25 27 26 24 23 22 22 21 22 22 19 23 23 23 22 21 21 20 20 20 19 20 19 19 20 20 20
26 27 27 26 24 19 23 23 24 24 24 26 26 18 18 16 15 21 23 23 24 22 21 20 19 20 18 20 20 21 22 22 21 21 20 20 20 20 20 20 20 19 19 20
27 26 27 28 27 24 26 26 25 24 22 23 23 20 19 20 16 19 20 21 23 22 20 18 19 20 20 19 18 17 20 20 22 21 21 21 21 20 20 20 20 19 19 19
28 26 27 27 28 28 25 27 25 22 16 18 23 21 21 18 18 19 18 17 19 21 19 20 19 19 18 17 16 16 16 17 19 21 21 21 20 20 20 20 19 19 19 19
27 26 26 25 27 26 25 25 24 22 20 23 22 20 16 16 20 19 19 16 16 15 18 18 18 18 18 18 16 16 17 17 18 18 19 19 19 19 20 19 19 19 19 19
26 26 26 25 26 23 25 22 24 24 27 27 21 19 18 19 19 19 19 18 16 16 15 17 18 17 17 15 16 16 17 17 18 18 18 19 19 18 19 19 19 19 19 19
28 26 25 24 25 26 24 22 23 26 27 27 20 17 18 19 19 19 18 18 17 15 15 17 17 17 16 17 15 16 17 18 17 17 18 18 18 19 18 18 18 18 18 19
27 27 25 24 24 23 23 24 25 27 24 23 23 17 14 18 19 20 19 18 17 16 15 14 14 15 15 16 15 16 17 17 17 16 16 17 17 17 17 17 17 18 18 17
24 24 24 24 24 25 23 24 24 23 23 23 22 21 23 20 21 19 19 18 17 16 15 14 13 13 14 15 15 15 15 16 16 16 15 16 16 16 16 16 16 16 17 17
24 23 24 24 24 22 23 25 22 23 24 24 23 22 21 20 20 19 19 18 16 15 14 13 13 14 14 15 14 15 15 15 16 15 15 15 14 14 15 14 16 17 16 16
23 25 24 23 23 22 23 22 22 24 24 23 22 22 21 21 20 19 19 18 17 15 13 13 12 13 13 14 14 14 15 15 15 15 14 15 15 14 14 15 14 17 16 16
25 23 24 24 23 23 24 23 23 23 24 23 22 21 21 21 20 19 19 18 17 14 14 13 12 14 13 14 14 14 14 14 14 14 14 13 13 14 14 15 15 14 14 14
20 22 22 21 22 24 23 23 23 23 22 22 21 21 20 20 20 19 18 17 15 14 12 12 12 13 13 13 14 14 14 14 14 14 14 13 13 14 14 14 14 13 14 14
24 22 21 21 20 21 21 23 22 22 22 21 21 20 19 19 19 18 17 16 14 13 13 12 12 12 13 13 13 13 13 13 13 13 14 14 14 13 14 13 13 13 13 13
Height
1492 1493 1491 1478 1472 1477 1486 1489 1499 1500 1490 1498 1501 1504 1510 1517 1524 1524 1526 1526 1530 1534 1534 1536 1543 1544 1545 1548 1551 1555 1558 1560 1563 1566 1569 1572 1575 1576 1581 1585 1586 1584 1588 1593
1487 1491 1477 1472 1467 1470 1478 1485 1487 1489 1487 1492 1492 1500 1502 1509 1514 1519 1524 1523 1529 1532 1534 1536 1539 1541 1543 1545 1550 1556 1557 1560 1563 1567 1569 1572 1575 1577 1582 1587 1585 1581 1586 1593
1481 1475 1474 1471 1469 1478 1473 1482 1491 1498 1489 1486 1489 1494 1503 1505 1513 1517 1520 1521 1526 1531 1534 1533 1538 1539 1541 1545 1548 1552 1555 1559 1563 1567 1569 1572 1575 1577 1580 1585 1587 1585 1587 1593
1479 1469 1468 1471 1472 1473 1480 1474 1482 1489 1490 1497 1481 1506 1494 1500 1508 1514 1518 1519 1522 1528 1533 1535 1535 1538 1537 1541 1546 1550 1554 1558 1562 1566 1569 1571 1573 1575 1578 1581 1584 1584 1584 1588
1477 1472 1474 1479 1477 1473 1476 1477 1480 1485 1491 1478 1474 1486 1481 1492 1506 1508 1512 1517 1517 1524 1527 1531 1534 1536 1539 1538 1543 1548 1553 1558 1561 1565 1568 1571 1572 1574 1577 1579 1580 1580 1580 1580
1473 1471 1473 1476 1473 1471 1467 1476 1479 1485 1486 1495 1470 1469 1493 1501 1495 1495 1501 1508 1513 1516 1519 1527 1531 1533 1535 1540 1541 1545 1551 1555 1559 1563 1566 1568 1571 1574 1576 1579 1579 1579 1579 1579
1473 1472 1472 1471 1474 1470 1472 1480 1496 1499 1492 1496 1479 1478 1493 1481 1485 1481 1488 1498 1507 1509 1513 1518 1524 1527 1532 1535 1541 1542 1547 1552 1556 1560 1562 1565 1567 1569 1573 1576 1579 1580 1580 1579
1471 1485 1470 1469 1473 1473 1473 1477 1487 1513 1521 1530 1493 1503 1485 1473 1473 1474 1482 1488 1499 1503 1507 1512 1520 1524 1530 1532 1536 1539 1544 1549 1553 1556 1560 1562 1565 1569 1572 1575 1578 1579 1581 1578
1470 1470 1462 1464 1469 1471 1472 1480 1465 1481 1481 1506 1503 1494 1494 1475 1464 1463 1478 1490 1493 1497 1502 1509 1517 1516 1517 1527 1530 1535 1539 1544 1549 1553 1556 1559 1562 1566 1571 1574 1576 1578 1581 1579
1465 1480 1464 1462 1466 1467 1469 1464 1481 1470 1497 1507 1518 1521 1516 1502 1502 1469 1470 1486 1490 1492 1497 1503 1510 1517 1518 1521 1528 1532 1536 1541 1545 1550 1553 1556 1559 1563 1567 1568 1572 1574 1577 1578
1466 1466 1471 1467 1476 1474 1472 1476 1483 1483 1495 1494 1512 1537 1521 1516 1495 1473 1462 1475 1481 1488 1493 1500 1506 1512 1516 1519 1522 1528 1531 1538 1543 1547 1550 1553 1556 1561 1564 1566 1566 1570 1573 1576
1464 1467 1482 1482 1487 1476 1476 1481 1489 1501 1535 1524 1505 1537 1521 1507 1499 1473 1471 1477 1481 1487 1492 1497 1502 1506 1513 1518 1517 1523 1528 1533 1538 1543 1547 1550 1553 1557 1561 1563 1564 1566 1570 1575
1474 1470 1480 1482 1510 1493 1483 1478 1487 1490 1493 1514 1531 1519 1504 1503 1496 1485 1485 1486 1490 1494 1496 1499 1501 1505 1509 1514 1513 1521 1525 1529 1533 1537 1542 1546 1549 1554 1557 1559 1563 1565 1568 1569
1480 1476 1477 1484 1485 1505 1500 1493 1488 1494 1502 1492 1492 1522 1518 1508 1515 1508 1499 1494 1493 1497 1502 1502 1503 1504 1508 1503 1511 1522 1523 1526 1529 1532 1536 1540 1544 1548 1552 1555 1558 1561 1562 1564
1477 1483 1472 1466 1470 1483 1480 1479 1484 1493 1501 1502 1497 1510 1509 1504 1512 1512 1509 1501 1499 1500 1502 1503 1503 1504 1508 1508 1513 1520 1513 1516 1527 1532 1534 1534 1538 1543 1548 1551 1554 1557 1559 1560
1469 1479 1471 1475 1465 1469 1479 1469 1475 1486 1509 1516 1496 1505 1505 1511 1514 1513 1510 1506 1501 1502 1503 1503 1504 1506 1508 1513 1514 1524 1499 1514 1522 1522 1532 1533 1534 1538 1542 1546 1549 1552 1555 1558
1471 1473 1478 1484 1467 1471 1485 1477 1477 1486 1488 1484 1492 1499 1507 1511 1513 1511 1509 1508 1505 1503 1508 1510 1510 1512 1514 1512 1511 1520 1519 1513 1513 1508 1524 1527 1529 1533 1536 1540 1544 1547 1550 1553
1473 1476 1479 1485 1476 1500 1472 1475 1477 1480 1470 1460 1483 1496 1499 1505 1510 1511 1513 1507 1506 1509 1509 1510 1510 1513 1515 1519 1518 1521 1523 1523 1519 1519 1518 1520 1524 1530 1534 1537 1540 1543 1546 1548
1466 1471 1482 1488 1484 1473 1475 1481 1477 1475 1472 1469 1489 1502 1510 1509 1517 1512 1513 1510 1508 1509 1509 1510 1511 1512 1514 1514 1517 1514 1514 1516 1519 1521 1518 1519 1523 1527 1531 1534 1536 1538 1541 1543
1464 1469 1481 1482 1489 1492 1483 1476 1476 1471 1483 1481 1485 1499 1505 1511 1507 1509 1512 1510 1511 1510 1511 1508 1511 1511 1513 1513 1514 1514 1515 1515 1513 1511 1515 1517 1519 1523 1528 1531 1533 1534 1537 1539
1478 1479 1481 1479 1483 1474 1478 1476 1477 1491 1496 1486 1490 1496 1482 1496 1500 1506 1507 1510 1511 1510 1512 1508 1509 1509 1509 1507 1508 1509 1509 1510 1511 1511 1512 1515 1516 1519 1521 1527 1528 1529 1533 1535
1475 1481 1480 1477 1480 1490 1479 1478 1487 1487 1484 1486 1489 1494 1497 1501 1504 1508 1508 1509 1511 1511 1510 1508 1506 1506 1504 1503 1504 1505 1504 1503 1505 1505 1507 1512 1513 1516 1515 1521 1521 1526 1526 1530
1477 1468 1474 1480 1481 1482 1482 1484 1482 1486 1484 1487 1491 1495 1499 1503 1504 1507 1508 1509 1509 1511 1509 1507 1506 1504 1503 1501 1500 1501 1502 1501 1503 1506 1509 1511 1511 1514 1515 1515 1525 1520 1525 1528
1466 1470 1470 1473 1476 1478 1479 1482 1486 1486 1485 1488 1490 1494 1498 1500 1503 1505 1506 1507 1509 1510 1509 1507 1506 1503 1502 1501 1501 1503 1503 1501 1503 1506 1509 1513 1514 1512 1515 1516 1521 1522 1525 1529
1474 1478 1476 1478 1480 1478 1480 1483 1486 1487 1486 1489 1493 1496 1499 1499 1501 1502 1504 1507 1508 1509 1510 1509 1507 1506 1505 1503 1502 1504 1505 1506 1507 1507 1510 1512 1514 1515 1516 1519 1522 1523 1525 1528
1466 1470 1478 1479 1481 1479 1482 1482 1484 1487 1488 1491 1495 1498 1502 1502 1503 1505 1506 1507 1507 1509 1510 1510 1508 1508 1508 1506 1507 1507 1508 1508 1509 1511 1512 1514 1516 1517 1518 1519 1521 1523 1525 1525
Wind_Speed
14 11 14 19 16 4 14 9 10 10 7 10 9 7 13 26 19 18 14 10 17 13 15 17 16 19 21 16 18 16 17 17 15 17 15 12 18 9 12 6 9 7 8 3
9 15 17 16 17 12 8 6 4 11 10 7 8 10 18 26 26 26 18 11 10 10 18 18 19 21 21 20 14 20 19 19 18 16 16 14 11 12 11 10 7 5 4 9
15 14 16 16 13 8 9 9 6 4 5 10 6 9 17 19 23 26 20 29 22 16 19 18 18 25 26 23 20 18 18 23 18 16 18 16 13 14 15 11 9 10 11 9
11 16 14 13 11 8 14 9 5 6 4 9 12 2 18 19 17 21 24 30 26 22 19 15 20 20 29 24 18 15 15 23 23 19 16 19 16 17 15 11 9 11 12 9
9 11 6 7 10 13 7 3 8 9 17 14 16 9 11 19 18 17 24 29 31 27 25 25 29 25 25 20 20 18 15 23 18 24 17 19 18 14 10 11 11 13 5 7
10 4 4 12 16 16 7 9 11 9 15 11 15 10 9 11 13 19 27 32 32 30 25 37 21 24 23 24 24 20 19 20 22 22 20 19 18 15 16 14 15 13 9 10
12 11 10 13 13 11 8 12 9 11 12 4 16 5 6 8 19 19 24 31 36 36 31 40 30 28 29 28 26 26 21 20 23 25 23 21 18 19 10 16 9 9 13 11
8 12 15 10 13 9 14 13 13 1 4 5 21 6 7 11 18 26 29 37 37 35 24 20 34 34 24 31 30 27 23 17 24 25 23 23 22 17 16 14 12 14 16 9
9 6 12 11 10 14 14 11 18 9 14 5 4 4 6 12 7 14 29 31 32 33 28 35 35 39 37 34 32 29 25 19 19 23 25 24 23 18 14 13 12 15 7 9
7 2 7 9 7 13 15 11 9 10 15 8 4 4 3 16 20 6 23 29 30 27 29 20 25 33 37 35 31 27 26 21 19 22 22 22 22 25 19 17 15 16 10 13
12 10 4 8 4 4 4 9 7 10 8 9 3 3 7 18 30 14 10 36 29 28 35 31 35 25 30 28 36 29 24 22 21 24 24 20 19 16 20 19 15 23 17 13
7 13 1 5 9 15 4 2 3 6 5 6 5 4 12 23 29 7 12 12 10 10 19 20 29 30 28 27 35 31 28 26 21 24 26 24 22 18 18 16 20 17 19 22
9 7 9 12 11 17 6 3 7 6 6 8 3 4 8 13 33 16 7 4 5 2 5 15 19 22 27 18 35 28 31 29 24 26 26 25 24 22 21 21 17 14 14 15
4 13 14 10 6 13 13 5 9 9 7 7 3 7 9 9 15 18 12 17 9 4 2 7 15 9 15 8 12 24 30 30 29 28 27 25 24 22 21 19 18 21 16 15
6 12 15 13 4 22 13 14 14 6 9 10 10 7 6 9 8 12 12 8 4 5 0 3 13 7 12 6 4 24 21 19 29 28 27 27 25 23 20 20 19 16 17 17
10 11 11 14 8 13 10 20 13 10 8 19 5 11 1 2 6 5 3 7 10 5 2 3 6 2 16 29 41 32 16 12 19 28 27 23 23 22 24 24 23 23 22 23
7 8 8 12 11 9 8 10 12 10 26 19 9 10 17 7 8 2 3 4 4 7 8 3 7 11 7 7 23 24 9 9 22 8 24 17 21 23 24 24 24 23 22 21
11 6 7 11 11 10 3 9 9 13 7 7 19 14 11 18 8 4 2 7 6 3 7 13 18 14 12 9 10 12 13 13 14 19 14 14 16 16 18 20 20 20 21 21
9 6 8 10 11 3 8 2 3 8 7 14 18 19 9 15 11 8 5 6 7 5 5 10 12 12 9 12 9 6 7 6 17 23 16 15 17 16 14 16 15 14 16 19
5 6 6 11 12 12 8 3 5 5 5 15 16 23 26 26 10 7 7 6 6 6 4 4 1 6 9 14 14 9 10 14 16 20 26 17 18 13 14 14 15 13 12 11
7 7 11 9 8 0 7 7 3 3 5 9 13 5 21 11 10 10 9 7 6 5 4 3 0 1 4 7 9 10 10 12 12 10 15 20 15 15 14 9 3 6 10 15
6 6 9 11 13 5 8 5 6 5 2 7 11 11 14 9 11 8 6 7 5 4 3 4 3 4 6 3 4 5 6 8 8 8 10 20 13 11 9 5 6 15 17 21
8 8 3 1 2 2 1 8 8 9 2 5 7 8 8 7 8 5 6 5 7 4 3 2 4 5 5 2 2 5 4 4 2 8 12 9 4 6 8 9 16 15 15 19
8 12 4 8 9 12 11 5 1 2 3 6 7 5 3 4 5 6 5 5 6 6 4 3 3 6 5 3 1 3 2 1 4 9 13 10 10 10 14 11 11 9 7 4
10 9 1 5 12 6 7 5 5 3 3 6 8 4 4 3 3 3 4 3 4 4 4 3 5 7 8 6 4 3 7 6 8 11 12 12 10 9 9 10 11 10 8 4
8 8 4 3 4 6 10 8 4 5 6 7 6 5 3 3 3 2 4 5 5 2 3 3 5 6 6 7 7 6 6 6 9 9 10 9 6 5 6 8 8 7 7 6
Wind_Direction
203 220 218 233 238 185 183 196 168 172 185 184 213 183 171 191 203 222 230 203 192 248 179 171 171 157 152 170 174 171 165 169 187 164 158 170 170 172 168 186 170 234 205 222
184 231 238 238 249 206 200 267 186 174 142 240 167 188 181 183 199 211 213 203 204 214 194 176 168 169 167 175 185 175 176 183 189 169 170 170 173 182 180 198 182 235 192 233
243 215 230 256 245 281 187 221 154 183 250 245 249 205 180 188 198 205 207 205 210 239 200 187 193 178 171 177 183 195 195 191 184 180 171 188 186 185 199 209 199 215 203 221
239 259 209 241 243 219 268 63 120 167 257 263 190 251 186 183 192 207 207 209 221 202 176 201 208 184 172 175 175 193 185 165 169 180 187 184 184 196 211 206 194 206 225 210
204 248 181 262 237 248 243 354 261 320 306 262 216 240 188 163 183 200 213 210 222 211 193 214 203 198 178 172 179 193 182 175 181 178 185 193 192 209 201 205 205 217 241 190
283 348 246 237 240 241 234 188 201 189 244 260 270 279 137 160 190 202 203 213 221 216 209 190 198 197 173 169 178 187 186 191 187 187 187 182 194 194 194 209 202 214 236 222
207 226 229 235 240 228 247 257 249 227 226 261 344 319 132 194 199 195 200 199 209 217 218 184 201 197 176 173 178 183 198 202 196 192 194 189 198 214 189 200 184 190 226 208
209 185 187 202 249 241 221 240 256 321 25 310 298 4 147 209 223 205 185 188 200 210 215 218 198 182 177 179 178 183 197 205 197 191 203 195 207 202 204 179 202 225 223 235
316 116 157 196 202 253 254 209 259 283 233 208 290 57 313 327 196 180 171 188 203 213 204 194 189 189 181 191 181 184 196 200 203 201 204 207 203 197 204 213 214 229 247 250
308 202 333 171 220 222 256 293 295 238 246 231 207 7 190 332 304 148 166 177 211 199 206 216 173 185 183 179 182 188 199 200 198 201 216 210 204 206 202 211 216 195 224 243
302 294 145 250 296 261 251 241 350 342 10 314 105 6 313 282 275 276 116 178 181 190 196 202 203 188 197 195 173 182 190 190 194 199 211 210 215 217 214 214 220 215 215 216
308 312 69 187 219 276 251 223 260 329 82 285 310 151 215 260 285 355 58 84 172 170 210 201 203 203 222 200 184 184 188 196 199 199 206 206 215 214 217 229 229 227 228 231
349 296 266 132 24 335 294 297 222 235 233 123 265 141 241 11 348 15 82 117 103 121 153 169 178 192 198 240 182 190 191 197 196 196 201 208 208 211 215 230 221 237 238 237
312 277 294 323 137 172 268 136 289 272 271 246 254 105 9 72 310 340 341 38 139 142 193 226 192 185 190 140 164 191 190 196 196 192 201 199 207 211 213 224 232 235 240 255
253 267 280 313 133 192 245 210 185 220 339 318 26 120 143 138 218 305 316 356 130 142 194 133 203 223 227 276 302 299 215 187 199 197 196 201 204 210 214 222 228 232 237 248
232 257 271 278 251 242 340 255 188 135 121 273 164 131 313 264 274 275 340 354 66 104 172 108 91 179 264 259 257 281 301 209 205 186 203 201 206 211 218 224 229 230 231 240
292 317 323 290 1 334 215 10 13 310 176 189 165 142 124 305 219 230 106 84 59 85 97 114 107 108 194 218 246 266 271 256 258 232 188 196 197 209 222 222 226 232 236 237
238 268 284 276 288 272 16 22 28 311 272 148 115 130 146 169 175 155 55 101 99 165 134 147 161 163 176 186 211 253 229 208 212 239 232 208 210 217 227 231 236 237 241 243
266 256 265 279 256 240 117 117 271 322 312 80 134 135 154 167 167 112 108 88 93 97 144 197 198 213 238 247 237 236 257 282 247 232 218 216 222 224 224 233 229 239 251 252
216 271 239 268 288 291 90 54 190 359 322 63 103 129 114 255 188 137 132 103 100 92 81 88 321 260 236 249 254 258 267 278 289 244 233 226 211 204 218 228 232 238 254 269
219 236 264 237 256 190 138 152 237 252 87 155 133 23 98 90 98 116 125 115 103 87 74 65 86 279 261 248 251 271 278 269 265 238 241 224 210 204 207 223 225 290 287 269
229 227 230 241 262 211 8 158 15 79 121 66 88 77 82 98 122 126 128 128 108 98 56 35 357 328 313 308 228 236 281 276 262 254 242 219 207 214 195 257 285 305 289 296
214 256 293 300 5 170 132 168 139 294 163 127 99 95 118 141 134 124 125 110 115 96 84 28 27 347 346 347 215 231 237 263 211 205 207 151 165 246 229 230 285 294 273 278
219 2 344 342 167 186 190 141 295 212 75 93 73 73 52 85 125 136 132 123 97 88 58 19 37 15 13 11 246 225 224 72 152 168 184 199 203 206 258 236 247 231 205 218
151 235 27 294 319 165 171 223 188 199 101 110 101 70 44 16 92 88 128 117 114 35 55 50 51 45 45 44 48 174 155 155 156 157 167 172 175 174 181 182 188 178 175 187
173 135 192 180 272 312 337 223 214 208 171 158 155 128 47 -0 75 106 109 95 97 70 58 58 50 57 60 65 77 116 173 179 165 159 163 168 176 166 181 190 185 186 197 229